FW7336 Weather Reports


time (UTC)temp
C
wind
direction
speed
KPH
gust
KPH
rain 1hr
cm
rain 24hr
cm
rain mn
cm
humidity
%
barometer
mb
20260510210053 7 266 0.0 6.4 0.00 0.00 0.00 69 1016.0
20260510204605 8 139 6.4 8.0 0.00 0.00 0.00 69 1016.0
20260510203054 8 114 6.4 8.0 0.00 0.00 0.00 68 1015.9
20260510201553 8 116 4.8 8.0 0.00 0.00 0.00 69 1016.1
20260510200056 8 118 6.4 8.0 0.00 0.00 0.00 66 1016.3
20260510194559 9 115 6.4 9.7 0.00 0.00 0.00 64 1016.3
20260510193104 9 124 8.0 11.3 0.00 0.00 0.00 61 1016.5
20260510191603 10 77 8.0 11.3 0.00 0.00 0.00 61 1016.6
20260510190104 10 91 9.7 14.5 0.00 0.00 0.00 59 1016.7
20260510184552 10 89 9.7 14.5 0.00 0.00 0.00 59 1016.8
20260510183052 10 78 14.5 19.3 0.00 0.00 0.00 57 1017.0
20260510181558 11 82 16.1 20.9 0.00 0.00 0.00 55 1016.9
20260510180103 11 40 11.3 19.3 0.00 0.00 0.00 55 1017.0
20260510174601 11 26 11.3 14.5 0.00 0.00 0.00 54 1017.3
20260510173115 11 36 12.9 17.7 0.00 0.00 0.00 60 1017.5
20260510171553 11 52 14.5 24.1 0.00 0.00 0.00 54 1017.6
20260510170106 11 51 9.7 17.7 0.00 0.00 0.00 55 1017.7
20260510164612 11 324 9.7 19.3 0.00 0.00 0.00 54 1017.8
20260510163052 11 44 19.3 30.6 0.00 0.00 0.00 53 1018.2
20260510161558 11 46 11.3 22.5 0.00 0.00 0.00 53 1018.3
20260510160058 11 25 24.1 30.6 0.00 0.00 0.00 57 1018.5
20260510154557 11 48 16.1 27.4 0.00 0.00 0.00 53 1018.7
20260510153058 11 49 19.3 30.6 0.00 0.00 0.00 56 1018.7
20260510151600 11 38 19.3 27.4 0.00 0.00 0.00 53 1018.9
20260510150100 11 51 29.0 40.2 0.00 0.00 0.00 54 1019.2
20260510144555 11 31 25.7 33.8 0.00 0.00 0.00 54 1019.3
20260510143054 11 54 22.5 30.6 0.00 0.00 0.00 54 1019.5
20260510141556 11 59 19.3 32.2 0.00 0.00 0.00 51 1019.7
20260510140054 11 44 20.9 30.6 0.00 0.00 0.00 56 1019.8
20260510134556 11 34 19.3 38.6 0.00 0.00 0.00 57 1019.9
20260510133100 11 18 20.9 32.2 0.00 0.00 0.00 56 1020.0
20260510131555 11 46 19.3 30.6 0.00 0.00 0.00 55 1020.0
20260510130057 11 56 24.1 30.6 0.00 0.00 0.00 55 1020.1
20260510124553 10 43 19.3 30.6 0.00 0.00 0.00 54 1020.2
20260510123052 11 16 17.7 27.4 0.00 0.00 0.00 58 1020.4
20260510121555 11 38 17.7 35.4 0.00 0.00 0.00 59 1020.5
20260510120055 11 40 22.5 32.2 0.00 0.00 0.00 57 1020.5
20260510114604 11 43 22.5 27.4 0.00 0.00 0.00 57 1020.7
20260510113056 10 17 20.9 35.4 0.00 0.00 0.00 58 1020.8
20260510111555 10 47 17.7 40.2 0.00 0.00 0.00 60 1021.1
20260510110058 10 51 22.5 33.8 0.00 0.00 0.00 60 1021.3
20260510104609 10 51 24.1 35.4 0.00 0.00 0.00 60 1021.6
20260510103057 10 74 17.7 29.0 0.00 0.00 0.00 64 1021.7
20260510101552 10 36 16.1 30.6 0.00 0.00 0.00 65 1021.8
20260510100058 10 29 27.4 37.0 0.00 0.00 0.00 65 1021.9
20260510094555 10 22 17.7 33.8 0.00 0.00 0.00 69 1021.9
20260510093058 10 48 20.9 33.8 0.00 0.00 0.00 69 1022.0
20260510091600 9 57 25.7 32.2 0.00 0.00 0.00 68 1022.0
20260510084558 10 35 14.5 30.6 0.00 0.00 0.00 75 1022.1
20260510083100 8 40 24.1 30.6 0.00 0.00 0.00 72 1022.2
20260510081554 8 41 20.9 30.6 0.00 0.00 0.00 77 1022.2
20260510080057 8 357 20.9 27.4 0.00 0.00 0.00 77 1022.3
20260510074625 8 41 22.5 29.0 0.00 0.00 0.00 79 1022.2
20260510073054 8 21 17.7 29.0 0.00 0.00 0.00 83 1022.2
20260510071559 7 20 16.1 29.0 0.00 0.00 0.00 83 1022.2
20260510070053 7 33 16.1 27.4 0.00 0.00 0.00 83 1022.2
20260510064609 7 32 19.3 25.7 0.00 0.00 0.00 84 1022.2
20260510063101 7 38 17.7 22.5 0.00 0.00 0.00 85 1022.2
20260510061553 7 27 14.5 25.7 0.00 0.00 0.00 85 1022.1
20260510060058 7 1 16.1 24.1 0.00 0.00 0.00 85 1022.2
20260510054553 7 357 14.5 25.7 0.00 0.00 0.00 86 1022.0
20260510053054 7 44 16.1 22.5 0.00 0.00 0.00 86 1022.1
20260510051601 7 352 16.1 24.1 0.00 0.00 0.00 85 1022.2
20260510050053 7 27 12.9 22.5 0.00 0.00 0.00 86 1022.2
20260510044557 7 350 14.5 20.9 0.00 0.00 0.00 86 1022.2
20260510043103 7 338 14.5 20.9 0.00 0.00 0.00 86 1021.9
20260510041612 7 328 11.3 22.5 0.00 0.00 0.00 86 1021.9
20260510040055 7 30 12.9 20.9 0.00 0.00 0.00 87 1021.9
20260510034553 7 7 12.9 19.3 0.00 0.00 0.00 87 1022.1
20260510033056 7 329 12.9 22.5 0.00 0.00 0.00 87 1022.4
20260510031559 8 344 11.3 24.1 0.00 0.00 0.00 87 1022.4
20260510030057 8 349 12.9 22.5 0.00 0.00 0.00 87 1022.5
20260510024559 8 36 14.5 24.1 0.00 0.00 0.00 87 1022.5
20260510023053 8 35 16.1 24.1 0.00 0.00 0.00 87 1022.5
20260510021552 8 12 14.5 22.5 0.00 0.00 0.00 87 1022.5
20260510020055 8 345 16.1 27.4 0.00 0.00 0.00 88 1022.4
20260510014549 8 10 16.1 27.4 0.00 0.00 0.00 88 1022.5
20260510013108 8 15 14.5 22.5 0.00 0.00 0.00 89 1022.4
20260510011552 8 1 16.1 24.1 0.00 0.00 0.00 89 1022.4
20260510010105 8 27 14.5 24.1 0.00 0.00 0.00 89 1022.4
20260510004600 8 335 17.7 25.7 0.00 0.00 0.00 90 1022.4
20260510003056 8 25 14.5 27.4 0.00 0.00 0.00 90 1022.4
20260510001600 8 15 19.3 30.6 0.00 0.00 0.00 90 1022.5
20260510000104 8 12 17.7 27.4 0.00 0.00 0.00 91 1022.7
20260509234605 8 8 19.3 30.6 0.00 0.00 0.00 90 1022.7
20260509233055 8 41 20.9 29.0 0.00 0.00 0.00 91 1022.6
20260509231553 8 16 12.9 25.7 0.00 0.00 0.00 90 1022.6
20260509230054 9 350 14.5 25.7 0.00 0.00 0.00 90 1022.6
20260509224552 9 360 17.7 29.0 0.00 0.00 0.00 89 1022.5
20260509223057 9 10 20.9 29.0 0.00 0.00 0.00 88 1022.3
20260509221612 9 4 16.1 30.6 0.00 0.00 0.00 88 1022.2
20260509220105 10 13 19.3 30.6 0.00 0.00 0.00 89 1022.2
20260509214558 10 25 16.1 27.4 0.00 0.00 0.00 89 1022.3
20260509213102 10 12 20.9 32.2 0.00 0.00 0.00 89 1022.2
20260509211559 10 38 12.9 20.9 0.00 0.00 0.00 89 1022.2